CW5554 Weather Reports


time (UTC)temp
F
wind
direction
speed
knots
gust
knots
rain 1hr
in
rain 24hr
in
rain mn
in
humidity
%
barometer
mb
20260507234948 45 146 0.0 0.0 0.00 0.00 0.00 82 1015.0
20260507234447 46 146 0.0 0.0 0.00 0.00 0.00 82 1015.0
20260507233446 46 146 0.0 0.0 0.00 0.00 0.00 81 1015.1
20260507232947 46 146 0.0 0.0 0.00 0.00 0.00 81 1015.2
20260507231947 46 146 0.0 0.9 0.00 0.00 0.00 81 1015.2
20260507230447 47 146 0.9 0.9 0.00 0.00 0.00 81 1015.3
20260507230017 47 146 0.9 0.9 0.00 0.00 0.00 81 1015.3
20260507225517 47 146 0.0 1.7 0.00 0.00 0.00 82 1015.3
20260507225016 47 146 0.9 1.7 0.00 0.00 0.00 82 1015.4
20260507224447 47 146 0.0 0.9 0.00 0.00 0.00 82 1015.4
20260507224016 48 146 0.0 0.0 0.00 0.00 0.00 82 1015.5
20260507223516 48 146 0.0 0.9 0.00 0.00 0.00 82 1015.5
20260507223016 48 146 0.0 0.9 0.00 0.00 0.00 82 1015.5
20260507222016 48 146 0.0 0.9 0.00 0.00 0.00 82 1015.5
20260507221447 48 146 0.0 1.7 0.00 0.00 0.00 82 1015.6
20260507221016 48 146 0.0 2.6 0.00 0.00 0.00 82 1015.6
20260507220447 48 146 0.0 2.6 0.00 0.00 0.00 82 1015.6
20260507220017 48 145 0.9 1.7 0.00 0.00 0.00 82 1015.6
20260507215447 48 144 0.0 0.0 0.00 0.00 0.00 82 1015.3
20260507215017 48 144 0.0 0.0 0.00 0.00 0.00 82 1015.3
20260507214517 48 144 0.0 0.9 0.00 0.00 0.00 82 1015.4
20260507214016 48 144 0.0 0.9 0.00 0.00 0.00 82 1015.3
20260507213518 48 144 0.0 0.9 0.00 0.00 0.00 82 1015.2
20260507212517 48 144 0.0 1.7 0.00 0.00 0.00 82 1015.3
20260507211518 48 146 0.0 3.5 0.00 0.00 0.00 82 1015.3
20260507211016 48 160 0.9 3.5 0.00 0.00 0.00 82 1015.3
20260507210017 49 162 0.0 0.0 0.00 0.00 0.00 81 1015.3
20260507205516 49 162 0.0 0.9 0.00 0.00 0.00 81 1015.2
20260507204947 49 162 0.0 0.9 0.00 0.00 0.00 80 1015.2
20260507204016 50 162 0.0 3.5 0.00 0.00 0.00 79 1015.1
20260507203016 51 163 0.0 3.5 0.00 0.00 0.00 79 1015.0
20260507202516 51 165 0.9 3.5 0.00 0.00 0.00 78 1015.0
20260507201946 51 166 0.0 3.5 0.00 0.00 0.00 78 1014.9
20260507201017 51 178 0.0 2.6 0.00 0.00 0.00 77 1014.8
20260507200446 51 178 0.9 2.6 0.00 0.00 0.00 77 1014.7
20260507200016 52 180 2.6 2.6 0.00 0.00 0.00 76 1014.6
20260507195516 52 184 0.0 2.6 0.00 0.00 0.00 75 1014.6
20260507194946 52 184 0.9 2.6 0.00 0.00 0.00 74 1014.4
20260507194516 53 185 0.0 2.6 0.00 0.00 0.00 74 1014.4
20260507194016 53 185 0.9 2.6 0.00 0.00 0.00 73 1014.3
20260507193017 54 187 0.9 3.5 0.00 0.00 0.00 72 1014.2
20260507192448 54 188 0.9 3.5 0.00 0.00 0.00 71 1014.2
20260507190446 55 116 0.9 2.6 0.00 0.00 0.00 69 1014.1
20260507185516 55 185 1.7 3.5 0.00 0.00 0.00 69 1014.0
20260507184946 56 195 2.6 2.6 0.00 0.00 0.00 68 1013.9
20260507184516 56 198 0.9 6.1 0.00 0.00 0.00 68 1013.9
20260507183946 56 200 0.9 7.0 0.00 0.00 0.00 67 1013.9
20260507183517 56 159 5.2 7.0 0.00 0.00 0.00 66 1013.9
20260507183017 57 163 3.5 7.0 0.00 0.00 0.00 66 1014.0
20260507181946 57 199 2.6 7.0 0.00 0.00 0.00 65 1014.0
20260507181516 58 173 6.1 7.0 0.00 0.00 0.00 64 1013.9
20260507181016 58 171 5.2 7.8 0.00 0.00 0.00 64 1013.9
20260507180516 58 169 3.5 7.8 0.00 0.00 0.00 64 1013.9
20260507180017 58 223 4.3 7.0 0.00 0.00 0.00 63 1013.8
20260507175516 58 198 5.2 6.1 0.00 0.00 0.00 65 1013.7
20260507175016 58 167 3.5 6.1 0.00 0.00 0.00 64 1013.7
20260507174446 58 165 0.9 9.6 0.00 0.00 0.00 64 1013.7
20260507173516 59 170 5.2 8.7 0.00 0.00 0.00 64 1013.7
20260507173017 59 152 3.5 8.7 0.00 0.00 0.00 64 1013.7
20260507172516 59 151 1.7 8.7 0.00 0.00 0.00 64 1013.7
20260507172016 59 194 8.7 8.7 0.00 0.00 0.00 66 1013.8
20260507171516 58 220 3.5 7.0 0.00 0.00 0.00 66 1013.8
20260507170946 58 220 5.2 8.7 0.00 0.00 0.00 65 1013.7
20260507170516 58 236 1.7 8.7 0.00 0.00 0.00 66 1013.7
20260507165516 58 200 3.5 6.1 0.00 0.00 0.00 65 1013.7
20260507165016 58 190 2.6 7.0 0.00 0.00 0.00 64 1013.7
20260507164516 58 241 4.3 7.0 0.00 0.00 0.00 64 1013.7
20260507164016 58 197 2.6 7.0 0.00 0.00 0.00 64 1013.7
20260507163516 58 200 4.3 6.1 0.00 0.00 0.00 62 1013.8
20260507163016 59 244 3.5 7.0 0.00 0.00 0.00 63 1013.7
20260507162516 58 256 0.9 7.8 0.00 0.00 0.00 64 1013.7
20260507161946 58 211 1.7 7.8 0.00 0.00 0.00 64 1013.8
20260507161446 58 232 3.5 7.8 0.00 0.00 0.00 64 1013.8
20260507161016 58 234 6.1 7.0 0.00 0.00 0.00 62 1013.8
20260507160446 58 249 3.5 6.1 0.00 0.00 0.00 62 1013.8
20260507160016 57 213 1.7 7.0 0.00 0.00 0.00 62 1013.9
20260507155446 58 230 4.3 7.0 0.00 0.00 0.00 61 1013.8
20260507155016 58 209 1.7 7.0 0.00 0.00 0.00 60 1013.9
20260507154516 58 230 3.5 7.8 0.00 0.00 0.00 59 1013.9
20260507154016 58 215 3.5 7.8 0.00 0.00 0.00 59 1013.9
20260507153516 58 194 7.8 7.8 0.00 0.00 0.00 58 1013.9
20260507152946 58 226 2.6 7.0 0.00 0.00 0.00 58 1013.8
20260507152446 58 179 1.7 7.0 0.00 0.00 0.00 57 1013.9
20260507151946 59 200 3.5 7.0 0.00 0.00 0.00 55 1013.9
20260507151446 59 230 2.6 7.0 0.00 0.00 0.00 53 1013.8
20260507151016 59 210 2.6 7.0 0.00 0.00 0.00 51 1013.9
20260507150516 59 159 4.3 7.0 0.00 0.00 0.00 51 1013.8
20260507150016 60 157 1.7 6.1 0.00 0.00 0.00 50 1013.9
20260507145516 60 189 1.7 5.2 0.00 0.00 0.00 52 1013.9
20260507145016 60 76 4.3 5.2 0.00 0.00 0.00 49 1013.9
20260507144016 60 150 0.0 7.8 0.00 0.00 0.00 49 1014.0
20260507143516 60 185 0.0 7.8 0.00 0.00 0.00 48 1014.0
20260507143016 60 203 2.6 4.3 0.00 0.00 0.00 48 1014.0
20260507142016 61 240 3.5 6.1 0.00 0.00 0.00 48 1014.1
20260507141446 61 208 2.6 4.3 0.00 0.00 0.00 47 1014.1
20260507140516 60 155 0.0 2.6 0.00 0.00 0.00 47 1014.1
20260507140016 61 162 0.0 4.3 0.00 0.00 0.00 47 1014.1
20260507135516 61 178 1.7 4.3 0.00 0.00 0.00 46 1014.1
20260507134946 61 148 0.9 2.6 0.00 0.00 0.00 46 1014.1
20260507134516 61 306 0.9 2.6 0.00 0.00 0.00 51 1014.1
20260507134016 60 302 0.9 6.1 0.00 0.00 0.00 50 1014.1
20260507133446 60 336 1.7 6.1 0.00 0.00 0.00 48 1014.2
20260507132946 60 302 0.9 5.2 0.00 0.00 0.00 49 1014.2
20260507132516 59 235 0.0 5.2 0.00 0.00 0.00 48 1014.3
20260507132016 59 222 3.5 5.2 0.00 0.00 0.00 50 1014.3
20260507131016 60 208 2.6 4.3 0.00 0.00 0.00 48 1014.4
20260507130446 60 184 1.7 5.2 0.00 0.00 0.00 47 1014.4
20260507125946 60 252 0.0 5.2 0.00 0.00 0.00 48 1014.4
20260507125516 60 9 0.0 2.6 0.00 0.00 0.00 47 1014.4
20260507124446 60 313 1.7 4.3 0.00 0.00 0.00 49 1014.5
20260507124016 60 339 2.6 5.2 0.00 0.00 0.00 50 1014.6
20260507123446 59 178 0.9 5.2 0.00 0.00 0.00 49 1014.6
20260507122946 58 149 3.5 3.5 0.00 0.00 0.00 49 1014.6
20260507122516 58 127 2.6 2.6 0.00 0.00 0.00 52 1014.6
20260507121946 58 78 0.9 2.6 0.00 0.00 0.00 50 1014.6
20260507121516 58 78 0.0 2.6 0.00 0.00 0.00 49 1014.6
20260507121016 58 78 0.9 2.6 0.00 0.00 0.00 50 1014.6
20260507120516 58 69 0.9 2.6 0.00 0.00 0.00 51 1014.6
20260507115446 58 23 0.9 4.3 0.00 0.00 0.00 50 1014.7
20260507114946 58 5 1.7 2.6 0.00 0.00 0.00 51 1014.6
20260507114516 58 5 1.7 4.3 0.00 0.00 0.00 57 1014.6
20260507113516 58 292 2.6 4.3 0.00 0.00 0.00 50 1014.7
20260507113016 58 229 0.9 5.2 0.00 0.00 0.00 47 1014.6
20260507112445 59 228 1.7 5.2 0.00 0.00 0.00 50 1014.6
20260507111517 60 346 1.7 3.5 0.00 0.00 0.00 49 1014.6
20260507111016 62 296 1.7 3.5 0.00 0.00 0.00 46 1014.7
20260507110516 61 257 0.9 5.2 0.00 0.00 0.00 49 1014.7
20260507105446 59 190 3.5 5.2 0.00 0.00 0.00 51 1014.7
20260507104946 58 92 0.0 5.2 0.00 0.00 0.00 54 1014.7
20260507104516 58 108 2.6 5.2 0.00 0.00 0.00 54 1014.8
20260507104016 58 99 1.7 6.1 0.00 0.00 0.00 55 1014.8
20260507103446 58 81 0.0 6.1 0.00 0.00 0.00 61 1014.9
20260507102946 57 90 1.7 3.5 0.00 0.00 0.00 64 1015.0
20260507102516 57 111 1.7 3.5 0.00 0.00 0.00 64 1015.0
20260507102016 57 132 0.0 4.3 0.00 0.00 0.00 66 1015.0
20260507100946 56 109 3.5 3.5 0.00 0.00 0.00 68 1015.1
20260507100516 56 110 0.0 3.5 0.00 0.00 0.00 67 1015.1
20260507095946 55 98 1.7 4.3 0.00 0.00 0.00 70 1015.2
20260507095447 54 62 0.0 4.3 0.00 0.00 0.00 71 1015.2
20260507094946 55 69 1.7 4.3 0.00 0.00 0.00 68 1015.2
20260507094515 55 102 1.7 4.3 0.00 0.00 0.00 71 1015.1
20260507093446 53 221 1.7 4.3 0.00 0.00 0.00 77 1015.2
20260507093015 53 86 0.0 5.2 0.00 0.00 0.00 76 1015.2
20260507092445 53 147 0.0 5.2 0.00 0.00 0.00 77 1015.2
20260507091945 53 219 1.7 5.2 0.00 0.00 0.00 78 1015.2
20260507091515 53 137 0.9 5.2 0.00 0.00 0.00 80 1015.3
20260507091015 52 103 1.7 5.2 0.00 0.00 0.00 81 1015.2
20260507090445 52 105 5.2 5.2 0.00 0.00 0.00 81 1015.2
20260507085015 51 98 0.9 4.3 0.00 0.00 0.00 85 1015.2
20260507084445 51 55 0.9 4.3 0.00 0.00 0.00 86 1015.2
20260507084017 50 84 2.6 3.5 0.00 0.00 0.00 87 1015.2
20260507083516 50 243 0.9 3.5 0.00 0.00 0.00 89 1015.3
20260507082946 49 119 0.9 3.5 0.00 0.00 0.00 90 1015.2
20260507082517 49 150 3.5 3.5 0.00 0.00 0.00 91 1015.3
20260507082015 49 100 1.7 4.3 0.00 0.00 0.00 91 1015.3
20260507081516 48 131 1.7 4.3 0.00 0.00 0.00 92 1015.3
20260507080945 47 129 2.6 3.5 0.00 0.00 0.00 93 1015.4
20260507080016 47 113 0.0 2.6 0.00 0.00 0.00 93 1015.3
20260507074946 46 180 1.7 2.6 0.00 0.00 0.00 93 1015.3
20260507074516 45 182 1.7 1.7 0.00 0.00 0.00 93 1015.3
20260507074016 45 184 0.0 1.7 0.00 0.00 0.00 93 1015.2
20260507073446 45 302 0.0 0.9 0.00 0.00 0.00 93 1015.3
20260507072945 44 132 0.0 0.0 0.00 0.00 0.00 93 1015.3
20260507072516 44 155 0.0 1.7 0.00 0.00 0.00 92 1015.2
20260507071516 43 61 0.0 0.0 0.00 0.00 0.00 92 1015.1
20260507071016 42 61 0.0 1.7 0.00 0.00 0.00 92 1015.1
20260507070515 42 67 0.0 1.7 0.00 0.00 0.00 91 1015.1
20260507070015 41 68 0.0 1.7 0.00 0.00 0.00 91 1015.1
20260507065516 41 241 0.9 0.9 0.00 0.00 0.00 91 1015.1
20260507064945 41 241 0.0 0.9 0.00 0.00 0.00 91 1015.2
20260507064015 40 241 0.0 1.7 0.00 0.00 0.00 90 1015.2
20260507062946 40 22 0.0 1.7 0.00 0.00 0.00 90 1015.2
20260507062515 40 355 0.0 1.7 0.00 0.00 0.00 90 1015.2
20260507061946 40 355 0.0 1.7 0.00 0.00 0.00 90 1015.1
20260507061445 40 355 0.9 0.9 0.00 0.00 0.00 90 1015.1
20260507061015 40 355 0.0 0.0 0.00 0.00 0.00 90 1015.1
20260507060445 39 355 0.0 0.0 0.00 0.00 0.00 89 1015.1
20260507060015 39 355 0.0 0.0 0.00 0.00 0.00 89 1015.0
20260507055515 39 355 0.0 0.0 0.00 0.00 0.00 89 1015.0
20260507054945 39 355 0.0 1.7 0.00 0.00 0.00 89 1015.0
20260507054515 39 355 0.0 1.7 0.00 0.00 0.00 89 1014.9
20260507053946 39 355 0.0 1.7 0.00 0.00 0.00 89 1014.9
20260507053015 38 355 0.0 0.0 0.00 0.00 0.00 88 1014.8
20260507052445 38 355 0.0 1.7 0.00 0.00 0.00 88 1014.7
20260507052016 38 355 0.0 1.7 0.00 0.00 0.00 88 1014.7
20260507051445 38 36 0.9 0.9 0.00 0.00 0.00 88 1014.8
20260507051015 38 238 0.0 0.0 0.00 0.00 0.00 88 1014.7
20260507050445 38 201 0.0 0.0 0.00 0.00 0.00 88 1014.7
20260507050016 38 44 0.0 0.0 0.00 0.00 0.00 88 1014.7
20260507044447 38 49 0.0 0.0 0.00 0.00 0.00 87 1014.6
20260507044015 38 59 0.0 0.0 0.00 0.00 0.00 87 1014.6
20260507043015 38 57 0.0 1.7 0.00 0.00 0.00 87 1014.6
20260507042445 38 30 0.0 1.7 0.00 0.00 0.00 87 1014.5
20260507042017 38 30 0.9 2.6 0.00 0.00 0.00 87 1014.5
20260507035946 38 30 0.0 3.5 0.00 0.00 0.00 86 1014.6
20260507035445 38 30 1.7 3.5 0.00 0.00 0.00 85 1014.6
20260507034945 38 32 0.9 2.6 0.00 0.00 0.00 86 1014.6
20260507034445 38 32 0.0 2.6 0.00 0.00 0.00 85 1014.5
20260507034015 38 32 0.9 1.7 0.00 0.00 0.00 85 1014.6
20260507033445 38 32 0.0 0.9 0.00 0.00 0.00 85 1014.5
20260507032945 38 32 0.0 0.0 0.00 0.00 0.00 85 1014.5
20260507032515 38 32 0.0 0.0 0.00 0.00 0.00 85 1014.5
20260507031945 39 32 0.0 0.0 0.00 0.00 0.00 85 1014.5
20260507031515 39 32 0.0 0.0 0.00 0.00 0.00 85 1014.4
20260507030945 39 32 0.0 0.0 0.00 0.00 0.00 85 1014.5
20260507030015 39 32 0.0 0.0 0.00 0.00 0.00 85 1014.5
20260507025445 39 32 0.0 0.0 0.00 0.00 0.00 84 1014.4
20260507025016 39 32 0.0 0.0 0.00 0.00 0.00 84 1014.5
20260507024515 39 32 0.0 0.0 0.00 0.00 0.00 84 1014.5
20260507024015 39 32 0.0 0.0 0.00 0.00 0.00 84 1014.4
20260507023515 39 32 0.0 0.0 0.00 0.00 0.00 84 1014.5
20260507023015 39 32 0.0 0.0 0.00 0.00 0.00 84 1014.4
20260507022445 39 32 0.0 0.0 0.00 0.00 0.00 84 1014.4
20260507022015 39 32 0.0 0.0 0.00 0.00 0.00 84 1014.4
20260507021445 40 32 0.0 0.0 0.00 0.00 0.00 84 1014.4
20260507020945 40 32 0.0 0.0 0.00 0.00 0.00 84 1014.4
20260507020515 40 32 0.0 0.9 0.00 0.00 0.00 84 1014.4
20260507020016 40 32 0.0 0.9 0.00 0.00 0.00 84 1014.4
20260507015445 40 32 0.0 0.9 0.00 0.00 0.00 84 1014.4
20260507015015 40 32 0.0 1.7 0.00 0.00 0.00 84 1014.4
20260507014445 40 32 0.0 1.7 0.00 0.00 0.00 84 1014.3
20260507014015 40 32 0.0 0.9 0.00 0.00 0.00 84 1014.4
20260507013446 40 32 0.0 1.7 0.00 0.00 0.00 83 1014.4
20260507013015 40 32 0.0 2.6 0.00 0.00 0.00 83 1014.4
20260507012515 40 32 0.0 2.6 0.00 0.00 0.00 83 1014.4
20260507011945 40 32 0.9 2.6 0.00 0.00 0.00 83 1014.3
20260507010445 41 32 0.0 0.9 0.00 0.00 0.00 82 1014.5
20260507010015 41 32 0.9 0.9 0.00 0.00 0.00 82 1014.5
20260507005515 41 32 0.0 0.0 0.00 0.00 0.00 82 1014.5
20260507004945 41 32 0.0 0.0 0.00 0.00 0.00 82 1014.5
20260507004515 41 32 0.0 0.0 0.00 0.00 0.00 82 1014.4
20260507003945 41 32 0.0 0.0 0.00 0.00 0.00 82 1014.4
20260507003515 41 32 0.0 0.0 0.00 0.00 0.00 82 1014.3
20260507002945 42 32 0.0 0.0 0.00 0.00 0.00 82 1014.4
20260507001445 42 32 0.0 0.0 0.00 0.00 0.00 82 1014.5
20260507000515 42 32 0.0 1.7 0.00 0.00 0.00 81 1014.5
20260507000015 42 32 0.0 1.7 0.00 0.00 0.00 81 1014.5
20260506235515 42 32 0.0 0.9 0.00 0.00 0.00 81 1014.4